COSMOS 249 DEB *, 3908

Orbit data source: Space-Track

COSMOS 249 DEB *, 3908 is space debris in LEO originally from a launch on Sun, 20 Oct 1968 UTC launched from the Tyuratam Missile And Space Complex (TTMTR). Debris objects in space refer to the collection of defunct objects orbiting the Earth. Examples of debris include non-operational satellites, rocket bodies, and fragments generated from explosions, collisions, or faulty payload assembly.

Loading next visibility...
Identifier
3908, 1968-091BL
Orbit
LEO
Country
Flag of CISCIS
Related business
Manufacturer
Unknown
Mission
Spacecraft
Bus & Motor
Unknown
Mass
Unknown
Launch date (UTC)
1968-10-20 (58 years ago)
Launch vehicle
Unknown
Launch site
Tyuratam Missile And Space Complex (TTMTR)
Object type
Payload
Rocket body
Debris
Shape & HBR
Unknown shape, 0.1 m
Radar Cross Section
Small (<0.1 m²)

Expand to show TLE details & history
Last TLE update: 16 hours ago

TLE from 16 hours ago
0 COSMOS 249 DEB *
1 03908U 68091BL  26126.16036076  .00001487  00000-0  10926-2 0  9990
2 03908  63.3403  77.3096 0595693  32.5219  66.7193 13.36468520775876
Epoch: 2026-05-06T03:50Z
TLE epoch observation values (Epoch: 2026-05-06T03:50:55.169Z)
Latitude
59.48319°
Longitude
-82.3669°
Altitude
978.075 km
Speed
7.444 km/s
True Right ascension
13h 17m 33s
True Declination
59° 20' 13"
Sunlit
Object was in daylight at epoch
Visualization orbit readout
Latitude
Unknown
Longitude
Unknown
Altitude
Unknown
Speed
Unknown
Apparent Right ascension
Unknown
Apparent Declination
Unknown
Sunlit
N/A
Visualization observer readout
Local Sidereal Time
04:12:59
Azimuth
Unknown
Elevation
Unknown
Doppler factor
Unknown
Orbital elements
Apogee altitude
1,568.035 km
Perigee altitude
674.563 km
Semi-major axis
7,499.436 km
Eccentricity
0.05957
Inclination
63.3403°
RAAN
77.3096°
Arg. of periapsis
32.5219°
True anomaly
73.16587°
Mean anomaly
66.7193°
Eccentric anomaly
69.92501°
Mean motion
3.34195 °/min
Orbital period
107.72 mins
BSTAR
0.0010926
Loading maneuver chart data...
Computing Atmospheric mass density...
Loading historical data...
Loading historical data...
Loading historical data...
Loading historical data...
Loading historical data...
Loading historical data...
Loading historical data...

Documentation

Showing up to 5 results
|